time_stamp(utc),avg(mph),gust(mph),direction(deg),12m_air_temp(f),sonic_u(cm/s),sonic_v(cm/s),sonic_w(cm/s),pressure,2m_air_temp(f),pyranometer(W/m^2)
"2020-05-25 00:03:21+00",17.8,20.8,,54,707,412,20,1022.2,54.2,0
"2020-05-25 00:08:21+00",17.9,20.9,,54,703,429,40,1022.22,54.3,0
"2020-05-25 00:13:21+00",17.6,21.6,,54,745,305,31,1022.18,54.2,0
"2020-05-25 00:18:21+00",19.5,21.5,,53.9,810,411,30,1022.01,54.2,0
"2020-05-25 00:23:21+00",18.4,24.4,,53.9,781,331,58,1021.91,54.2,0
"2020-05-25 00:28:21+00",17.4,20.4,,54,737,305,72,1021.89,54.2,0
"2020-05-25 00:33:21+00",22.2,25.2,,53.8,964,391,46,1021.79,54.2,0
"2020-05-25 00:38:21+00",18.8,25.8,,53.7,791,349,63,1021.98,54,0
"2020-05-25 00:43:21+00",19.1,24.1,,53.7,806,388,35,1022.01,54.1,0
"2020-05-25 00:48:21+00",19.1,22.1,,53.5,776,410,33,1022.03,54,0
"2020-05-25 00:53:21+00",20.0,23.0,,53.4,851,390,49,1022.11,53.8,0
"2020-05-25 00:58:21+00",20.5,23.5,,53.4,824,444,25,1022.04,53.8,0
"2020-05-25 01:03:21+00",16.1,19.1,,53.5,641,339,41,1022.16,53.8,0
"2020-05-25 01:08:21+00",19.0,21.0,,53.4,766,422,16,1022.2,53.9,0
"2020-05-25 01:13:21+00",17.9,21.9,,53.5,733,363,34,1022.18,53.8,0
"2020-05-25 01:18:21+00",18.2,22.2,,53.4,749,374,37,1022.23,53.6,0
"2020-05-25 01:23:21+00",12.7,14.7,,53.6,530,251,40,1022.27,53.7,0
"2020-05-25 01:28:21+00",16.5,19.5,,53.6,674,366,38,1022.3,53.8,0
"2020-05-25 01:33:21+00",15.4,18.4,,53.6,631,329,43,1022.34,53.8,0
"2020-05-25 01:38:21+00",17.2,19.2,,53.7,684,404,33,1022.52,53.8,0
"2020-05-25 01:43:21+00",15.0,17.0,,53.8,617,302,45,1022.68,53.9,0
"2020-05-25 01:48:21+00",15.1,17.1,,53.9,616,316,22,1022.69,54,0
"2020-05-25 01:53:21+00",16.6,18.6,,54,617,458,56,1022.6,54,0
"2020-05-25 01:58:21+00",14.2,16.2,,54.1,542,329,25,1022.69,54.2,0
"2020-05-25 02:03:21+00",13.7,16.7,,54.2,519,326,45,1022.67,54.2,0
"2020-05-25 02:08:21+00",15.2,18.2,,54.3,575,371,25,1022.68,54.3,0
"2020-05-25 02:13:21+00",14.2,16.2,,54.3,569,288,42,1022.7,54.4,0
"2020-05-25 02:18:21+00",16.8,18.8,,54.2,675,372,20,1022.76,54.4,0
"2020-05-25 02:23:21+00",12.3,14.3,,54.2,473,285,42,1022.74,54.4,0
"2020-05-25 02:28:21+00",14.0,16.0,,54.2,553,318,15,1022.69,54.4,0
"2020-05-25 02:33:21+00",15.3,18.3,,54.2,586,346,28,1022.92,54.4,0
"2020-05-25 02:38:21+00",15.0,17.0,,54.1,545,397,17,1022.97,54.3,0
"2020-05-25 02:43:21+00",14.8,16.8,,54.1,554,369,31,1023.09,54.3,0
"2020-05-25 02:48:21+00",14.1,15.1,,54.2,518,355,27,1023.04,54.4,0
"2020-05-25 02:53:21+00",14.6,16.6,,54.1,520,394,29,1022.96,54.3,0
"2020-05-25 02:58:21+00",14.6,16.6,,54.1,552,351,36,1022.82,54.3,0
"2020-05-25 03:03:21+00",13.4,15.4,,54.1,500,354,43,1022.82,54.3,0
"2020-05-25 03:08:21+00",14.9,15.9,,54,517,411,21,1022.74,54.2,0
"2020-05-25 03:13:21+00",13.1,14.1,,54,483,336,34,1022.81,54.2,0
"2020-05-25 03:18:21+00",15.2,17.2,,54,513,456,30,1022.68,54.2,0
"2020-05-25 03:23:21+00",14.7,16.7,,54,533,376,33,1022.74,54.2,0
"2020-05-25 03:28:21+00",12.4,15.4,,54.2,365,387,24,1022.79,54.3,0
"2020-05-25 03:33:21+00",16.0,18.0,,53.9,563,450,41,1022.67,54.1,0
"2020-05-25 03:38:21+00",16.3,18.3,,53.9,593,465,22,1022.71,54.1,0
"2020-05-25 03:43:21+00",13.4,15.4,,54.1,480,372,31,1022.84,54.2,0
"2020-05-25 03:48:21+00",15.8,16.8,,54,540,457,39,1022.68,54.1,0
"2020-05-25 03:53:21+00",14.9,15.9,,54,529,412,15,1022.55,54,0
"2020-05-25 03:58:21+00",16.9,18.9,,53.9,626,445,27,1022.54,54,0
"2020-05-25 04:03:21+00",13.6,15.6,,53.9,468,380,38,1022.55,54.1,0
"2020-05-25 04:08:21+00",15.1,18.1,,53.8,531,416,28,1022.43,54,0
"2020-05-25 04:13:21+00",13.4,15.4,,53.8,495,352,33,1022.38,53.9,0
"2020-05-25 04:18:21+00",17.0,19.0,,53.5,632,450,32,1022.24,53.7,0
"2020-05-25 04:23:21+00",16.5,19.5,,53.5,589,454,30,1022.3,53.7,0
"2020-05-25 04:28:21+00",16.4,17.4,,53.5,564,465,12,1022.34,53.6,0
"2020-05-25 04:33:21+00",16.0,20.0,,53.4,535,478,32,1022.37,53.5,0
"2020-05-25 04:38:21+00",14.3,17.3,,53.5,525,378,42,1022.35,53.6,0
"2020-05-25 04:43:21+00",15.1,16.1,,53.4,536,423,21,1022.26,53.5,0
"2020-05-25 04:48:21+00",15.3,18.3,,53.5,476,482,14,1022.19,53.6,0
"2020-05-25 04:53:21+00",15.5,18.5,,53.6,501,489,32,1022.17,53.5,0
"2020-05-25 04:58:21+00",16.0,19.0,,53.6,492,502,19,1022.16,53.6,0
"2020-05-25 05:03:21+00",15.9,17.9,,53.5,529,471,23,1022.09,53.5,0
"2020-05-25 05:08:21+00",13.3,15.3,,53.7,426,401,48,1022.16,53.6,0
"2020-05-25 05:13:21+00",16.9,18.9,,53.7,455,557,-5,1022.11,53.6,0
"2020-05-25 05:18:21+00",16.7,18.7,,53.5,506,530,17,1021.98,53.5,0
"2020-05-25 05:23:21+00",14.0,16.0,,53.6,422,444,14,1022.13,53.6,0
"2020-05-25 05:28:21+00",15.1,17.1,,53.3,508,444,31,1022.13,53.4,0
"2020-05-25 05:33:21+00",12.6,14.6,,53.5,381,395,14,1022.16,53.5,0
"2020-05-25 05:38:21+00",12.0,14.0,,53.6,346,381,18,1022.12,53.6,0
"2020-05-25 05:43:21+00",14.7,16.7,,53.4,371,507,-1,1022.23,53.4,0
"2020-05-25 05:48:21+00",16.3,17.3,,53.2,514,507,11,1022.22,53.3,0
"2020-05-25 05:53:21+00",13.0,15.0,,53.5,456,374,29,1022.11,53.4,0
"2020-05-25 05:58:21+00",15.5,17.5,,53.5,422,524,-11,1022.03,53.6,0
"2020-05-25 06:03:21+00",14.7,16.7,,53.5,478,447,23,1021.87,53.5,0
"2020-05-25 06:08:21+00",15.8,18.8,,53.6,416,532,-1,1021.76,53.6,0
"2020-05-25 06:13:21+00",14.2,16.2,,53.5,467,419,28,1021.72,53.5,0
"2020-05-25 06:18:21+00",13.0,16.0,,53.5,454,364,12,1021.66,53.5,0
"2020-05-25 06:23:21+00",14.0,16.0,,53.5,379,455,8,1021.56,53.5,0
"2020-05-25 06:28:21+00",14.1,17.1,,53.4,517,392,27,1021.48,53.5,0
"2020-05-25 06:33:21+00",14.0,16.0,,53.5,420,436,25,1021.45,53.4,0
"2020-05-25 06:38:21+00",13.9,15.9,,53.6,462,422,26,1021.44,53.4,0
"2020-05-25 06:43:21+00",11.9,13.9,,53.6,389,355,39,1021.46,53.4,0
"2020-05-25 06:48:21+00",14.4,17.4,,53.5,450,445,22,1021.54,53.4,0
"2020-05-25 06:53:21+00",17.9,19.9,,53.3,571,544,13,1021.53,53.2,0
"2020-05-25 06:58:21+00",17.4,20.4,,53.4,578,522,23,1021.7,53.2,0
"2020-05-25 07:03:21+00",16.9,18.9,,53.5,560,521,21,1021.61,53.3,0
"2020-05-25 07:08:21+00",16.8,19.8,,53.6,470,551,-4,1021.66,53.4,0
"2020-05-25 07:13:21+00",18.0,20.0,,53.7,458,600,-15,1021.58,53.5,0
"2020-05-25 07:18:21+00",15.2,17.2,,53.6,324,569,-6,1021.8,53.3,0
"2020-05-25 07:23:21+00",14.6,16.6,,53.5,416,474,16,1021.81,53.3,0
"2020-05-25 07:28:21+00",14.3,16.3,,53.6,441,433,26,1021.89,53.4,0
"2020-05-25 07:33:21+00",14.0,17.0,,53.6,363,482,-1,1021.67,53.5,0
"2020-05-25 07:38:21+00",14.3,16.3,,53.5,445,444,22,1021.72,53.4,0
"2020-05-25 07:43:21+00",15.3,17.3,,53.5,456,482,13,1021.73,53.5,0
"2020-05-25 07:48:21+00",13.7,15.7,,53.6,427,419,20,1021.63,53.5,0
"2020-05-25 07:53:21+00",14.1,17.1,,53.6,401,450,14,1021.71,53.6,0
"2020-05-25 07:58:21+00",15.5,17.5,,53.5,411,521,11,1021.81,53.5,0
"2020-05-25 08:03:21+00",13.3,15.3,,53.5,400,410,13,1021.86,53.3,0
"2020-05-25 08:08:21+00",17.2,18.2,,53.4,496,547,-10,1021.86,53.3,0
"2020-05-25 08:13:21+00",17.1,18.1,,53.4,500,537,5,1021.91,53.3,0
"2020-05-25 08:18:21+00",14.8,17.8,,53.5,396,481,-5,1021.9,53.4,0
"2020-05-25 08:23:21+00",14.0,15.0,,53.5,438,426,33,1021.8,53.4,0
"2020-05-25 08:28:21+00",15.5,18.5,,53.5,294,606,-14,1021.93,53.3,0
"2020-05-25 08:33:21+00",17.2,20.2,,53.4,470,576,9,1021.89,53.3,0
"2020-05-25 08:38:21+00",17.6,19.6,,53.5,496,559,9,1021.9,53.3,0
"2020-05-25 08:43:21+00",17.8,20.8,,53.4,391,666,-3,1021.92,53.3,0
"2020-05-25 08:48:21+00",18.1,20.1,,53.5,400,658,-11,1022,53.3,0
"2020-05-25 08:53:21+00",15.5,17.5,,53.5,323,583,4,1022.04,53.3,0
"2020-05-25 08:58:21+00",14.7,17.7,,53.4,273,567,10,1022.07,53.2,0
"2020-05-25 09:03:21+00",15.5,17.5,,53.5,506,463,32,1021.99,53.3,0
"2020-05-25 09:08:21+00",15.4,19.4,,53.6,414,528,2,1022.07,53.5,0
"2020-05-25 09:13:21+00",16.1,19.1,,53.6,396,575,1,1022.08,53.4,0
"2020-05-25 09:18:21+00",16.4,18.4,,53.5,454,523,0,1022.03,53.2,0
"2020-05-25 09:23:21+00",15.7,17.7,,53.7,459,501,32,1021.95,53.4,0
"2020-05-25 09:28:21+00",17.7,19.7,,53.6,557,542,28,1021.73,53.3,0
"2020-05-25 09:33:21+00",16.0,18.0,,53.6,491,503,9,1021.71,53.4,0
"2020-05-25 09:38:21+00",14.4,17.4,,53.6,388,471,11,1021.73,53.4,0
"2020-05-25 09:43:21+00",16.0,17.0,,53.6,504,485,7,1021.69,53.3,0
"2020-05-25 09:48:21+00",14.7,16.7,,53.6,523,401,26,1021.69,53.3,0
"2020-05-25 09:53:21+00",15.4,16.4,,53.8,414,500,-8,1021.82,53.4,0
"2020-05-25 09:58:21+00",14.1,17.1,,53.8,380,458,21,1021.89,53.5,0
"2020-05-25 10:03:21+00",15.6,17.6,,53.7,419,519,-4,1021.92,53.5,0
"2020-05-25 10:08:21+00",16.8,17.8,,53.5,449,557,1,1021.89,53.3,0
"2020-05-25 10:13:21+00",16.4,18.4,,53.6,487,510,11,1021.89,53.4,0
"2020-05-25 10:18:21+00",17.4,19.4,,53.4,440,588,-6,1022.04,53.3,0
"2020-05-25 10:23:21+00",17.1,19.1,,53.5,471,554,-1,1022.06,53.3,0
"2020-05-25 10:28:21+00",18.2,19.2,,53.6,547,573,11,1022.09,53.4,0
"2020-05-25 10:33:21+00",16.6,18.6,,53.6,516,509,13,1022.07,53.5,0
"2020-05-25 10:38:21+00",15.8,17.8,,53.5,487,495,-2,1022.23,53.5,0
"2020-05-25 10:43:21+00",15.3,17.3,,53.5,478,471,21,1022.31,53.5,0
"2020-05-25 10:48:21+00",16.4,19.4,,53.6,473,519,22,1022.39,53.6,0
"2020-05-25 10:53:21+00",15.0,18.0,,53.7,341,527,3,1022.46,53.6,0
"2020-05-25 10:58:21+00",15.1,18.1,,53.7,356,550,-2,1022.54,53.7,0
"2020-05-25 11:03:21+00",16.9,18.9,,53.6,523,526,22,1022.61,53.7,0
"2020-05-25 11:08:21+00",18.5,21.5,,53.6,416,676,-12,1022.79,53.7,0
"2020-05-25 11:13:21+00",16.0,18.0,,53.6,450,522,9,1022.81,53.7,0
"2020-05-25 11:18:21+00",17.5,19.5,,53.6,495,563,15,1022.92,53.7,0
"2020-05-25 11:23:21+00",14.3,18.3,,53.7,272,576,-2,1023,53.8,0
"2020-05-25 11:28:21+00",17.7,19.7,,53.6,488,579,6,1022.99,53.7,0
"2020-05-25 11:33:21+00",16.8,19.8,,53.6,309,653,7,1022.94,53.7,0
"2020-05-25 11:38:21+00",17.5,20.5,,53.6,396,660,-4,1022.99,53.8,0
"2020-05-25 11:43:21+00",17.7,19.7,,53.6,355,683,-1,1023,53.8,0
"2020-05-25 11:48:21+00",16.1,19.1,,53.8,445,533,25,1022.89,54,0
"2020-05-25 11:53:21+00",18.2,20.2,,53.8,392,680,-4,1022.96,54.1,0
"2020-05-25 11:58:21+00",15.6,17.6,,54.1,367,563,14,1023.02,54.3,0
"2020-05-25 12:03:21+00",13.7,15.7,,54.5,300,508,15,1023.09,54.7,0
"2020-05-25 12:08:21+00",15.5,18.5,,54.5,326,609,14,1023.09,54.9,0
"2020-05-25 12:13:21+00",16.0,19.0,,54.6,344,596,8,1023.11,55,0
"2020-05-25 12:18:21+00",16.3,18.3,,54.5,393,571,6,1022.96,54.9,0
"2020-05-25 12:23:21+00",17.8,21.8,,54.6,525,578,15,1022.82,55.1,0
"2020-05-25 12:28:21+00",18.7,20.7,,54.6,497,613,-3,1022.83,55.2,0
"2020-05-25 12:33:21+00",15.3,17.3,,54.8,426,495,31,1022.87,55.3,0
"2020-05-25 12:38:21+00",19.0,21.0,,54.7,609,574,35,1022.82,55.4,0
"2020-05-25 12:43:21+00",19.3,21.3,,54.7,553,628,-4,1022.79,55.5,0
"2020-05-25 12:48:21+00",18.8,20.8,,54.7,614,583,26,1022.76,55.5,0
"2020-05-25 12:53:21+00",15.7,18.7,,54.9,486,485,29,1022.95,55.7,0
"2020-05-25 12:58:21+00",17.0,20.0,,55,574,496,19,1022.73,55.8,0
"2020-05-25 13:03:21+00",18.9,21.9,,54.9,569,586,17,1022.68,55.8,0
"2020-05-25 13:08:21+00",16.3,19.3,,55.1,586,427,29,1022.7,56.1,0
"2020-05-25 13:13:21+00",17.5,19.5,,55.1,561,529,21,1022.82,56.2,0
"2020-05-25 13:18:21+00",19.1,21.1,,55.3,626,580,16,1022.88,56.5,0
"2020-05-25 13:23:21+00",19.5,22.5,,55.1,696,537,35,1022.9,56.4,0
"2020-05-25 13:28:21+00",19.8,21.8,,55.2,668,597,26,1022.8,56.5,0
"2020-05-25 13:33:21+00",19.3,21.3,,55.4,654,565,40,1022.74,56.5,0
"2020-05-25 13:38:21+00",21.1,24.1,,55.4,637,672,6,1022.65,56.9,0
"2020-05-25 13:43:21+00",19.6,22.6,,55.5,518,644,5,1022.61,57.2,0
"2020-05-25 13:48:21+00",17.2,19.2,,56,548,528,37,1022.64,57.8,0
"2020-05-25 13:53:21+00",20.0,23.0,,55.7,662,591,33,1022.55,57.7,0
"2020-05-25 13:58:21+00",21.2,23.2,,55.5,645,667,5,1022.57,57.7,0
"2020-05-25 14:03:21+00",16.7,18.7,,55.9,528,508,48,1022.64,57.7,0
"2020-05-25 14:08:21+00",16.8,18.8,,55.9,535,508,38,1022.53,58,0
"2020-05-25 14:13:21+00",17.9,20.9,,55.8,504,578,-6,1022.52,58,0
"2020-05-25 14:18:21+00",17.6,19.6,,56.3,419,632,20,1022.46,58.5,0
"2020-05-25 14:23:21+00",18.3,21.3,,56.2,485,610,12,1022.55,58.5,0
"2020-05-25 14:28:21+00",17.8,19.8,,56.1,503,566,1,1022.75,58.3,0
"2020-05-25 14:33:21+00",16.2,21.2,,55.9,460,524,34,1022.83,58.1,0
"2020-05-25 14:38:21+00",16.6,18.6,,55.9,529,510,22,1022.89,58,0
"2020-05-25 14:43:21+00",14.0,17.0,,56.3,371,467,35,1022.9,58.1,0
"2020-05-25 14:48:21+00",16.3,18.3,,56.3,466,519,29,1022.84,58.6,0
"2020-05-25 14:53:21+00",17.0,19.0,,56.4,449,581,5,1022.95,58.7,0
"2020-05-25 14:58:21+00",17.9,19.9,,56,533,570,8,1022.92,58.4,0
"2020-05-25 15:03:21+00",17.3,19.3,,56,487,558,13,1022.95,58.5,0
"2020-05-25 15:08:21+00",18.8,20.8,,55.9,632,572,16,1022.88,58.5,0
"2020-05-25 15:13:21+00",17.6,19.6,,56.1,501,566,20,1022.94,58.7,0
"2020-05-25 15:18:21+00",17.3,18.3,,56.5,516,553,52,1022.75,59.6,0
"2020-05-25 15:23:21+00",19.3,21.3,,56.9,627,592,24,1022.66,60.3,0
"2020-05-25 15:28:21+00",19.7,21.7,,56.6,708,545,36,1022.65,60.2,0
"2020-05-25 15:33:21+00",19.4,21.4,,56.5,587,615,5,1022.67,60.2,0
"2020-05-25 15:38:21+00",19.2,21.2,,56.7,584,604,13,1022.75,60,0
"2020-05-25 15:43:21+00",18.4,20.4,,56.5,617,547,10,1022.79,59.6,0
"2020-05-25 15:48:21+00",19.0,20.0,,56.4,647,565,23,1022.78,59.3,0
"2020-05-25 15:53:21+00",19.1,20.1,,56.3,567,599,10,1022.74,59.1,0
"2020-05-25 15:58:21+00",17.9,20.9,,57.1,631,503,53,1022.71,60.3,0
"2020-05-25 16:03:21+00",18.2,21.2,,57.1,637,517,35,1022.6,60.5,0
"2020-05-25 16:08:21+00",16.1,19.1,,57.1,552,473,51,1022.62,60.1,0
"2020-05-25 16:13:21+00",16.7,19.7,,56.7,531,500,15,1022.67,60.1,0
"2020-05-25 16:18:21+00",15.6,17.6,,57.2,532,449,45,1022.77,60.5,0
"2020-05-25 16:23:21+00",17.8,20.8,,57.3,440,620,7,1022.67,60.8,0
"2020-05-25 16:28:21+00",17.2,18.2,,57.4,573,520,27,1022.83,61.2,0
"2020-05-25 16:33:21+00",18.7,20.7,,57.5,566,589,5,1022.85,60.9,0
"2020-05-25 16:38:21+00",18.0,21.0,,57.7,425,646,14,1022.96,60.7,0
"2020-05-25 16:43:21+00",19.5,21.5,,57.3,664,565,16,1022.98,60.1,0
"2020-05-25 16:48:21+00",19.2,20.2,,57.5,507,638,-9,1023.03,60.1,0
"2020-05-25 16:53:21+00",18.2,20.2,,57.7,618,547,40,1023,60.3,0
"2020-05-25 16:58:21+00",17.8,19.8,,57.7,663,467,48,1023.06,60.3,0
"2020-05-25 17:03:21+00",17.5,19.5,,57.8,557,538,19,1023.03,60.4,0
"2020-05-25 17:08:21+00",16.4,19.4,,58.1,503,505,29,1023.12,60.7,0
"2020-05-25 17:13:21+00",18.2,20.2,,58.1,599,553,37,1022.99,61,0
"2020-05-25 17:18:21+00",17.0,19.0,,58.4,535,528,22,1023,61.5,0
"2020-05-25 17:23:21+00",15.3,18.3,,58.9,496,471,46,1023.04,62,0
"2020-05-25 17:28:21+00",15.9,16.9,,58.5,462,506,11,1023.01,62.1,0
"2020-05-25 17:33:21+00",16.3,17.3,,58.8,558,475,32,1023.01,62.2,0
"2020-05-25 17:38:21+00",16.3,18.3,,58.9,569,455,28,1023,62.4,0
"2020-05-25 17:43:21+00",17.7,19.7,,58.7,663,445,27,1023.01,62.1,0
"2020-05-25 17:48:21+00",16.8,18.8,,58.6,592,472,27,1023,61.9,0
"2020-05-25 17:53:21+00",16.2,18.2,,58.7,588,437,25,1023.02,61.6,0
"2020-05-25 17:58:21+00",15.8,17.8,,58.7,634,362,47,1023.07,61.6,0
"2020-05-25 18:03:21+00",18.9,20.9,,58.1,669,517,14,1023.07,61.1,0
"2020-05-25 18:08:21+00",15.8,19.8,,58.7,581,421,66,1023.08,61.1,0
"2020-05-25 18:13:21+00",17.5,19.5,,58.6,658,432,36,1022.87,61.2,0
"2020-05-25 18:18:21+00",16.7,19.7,,58.7,645,388,56,1022.94,61.4,0
"2020-05-25 18:23:21+00",18.4,20.4,,58.5,687,458,24,1023.04,61.5,0
"2020-05-25 18:28:21+00",18.6,21.6,,58.3,707,473,41,1022.94,61.5,0
"2020-05-25 18:33:21+00",18.0,22.0,,58.6,698,436,64,1022.83,61.8,0
"2020-05-25 18:38:21+00",18.6,21.6,,58.5,666,490,27,1022.74,61.9,0
"2020-05-25 18:43:21+00",19.1,21.1,,58.6,724,498,39,1022.63,62.2,0
"2020-05-25 18:48:21+00",19.9,21.9,,58.6,658,600,26,1022.66,62,0
"2020-05-25 18:53:21+00",18.3,21.3,,59.1,615,540,26,1022.64,62.5,0
"2020-05-25 18:58:21+00",19.6,21.6,,58.6,642,593,24,1022.57,62.2,0
"2020-05-25 19:03:21+00",18.9,20.9,,59,618,568,39,1022.55,62.5,0
"2020-05-25 19:08:21+00",16.8,19.8,,59.3,610,451,58,1022.45,62.6,0
"2020-05-25 19:13:21+00",22.3,24.3,,58.6,772,641,39,1022.46,62.3,0
"2020-05-25 19:18:21+00",20.1,23.1,,58.8,723,534,21,1022.51,62.2,0
"2020-05-25 19:23:21+00",20.4,22.4,,58.7,785,482,38,1022.45,62.1,0
"2020-05-25 19:28:21+00",21.1,24.1,,58.8,746,583,33,1022.46,62.2,0
"2020-05-25 19:33:21+00",20.7,22.7,,58.7,696,621,32,1022.29,62.1,0
"2020-05-25 19:38:21+00",20.8,23.8,,58.7,694,614,37,1022.18,62,0
"2020-05-25 19:43:21+00",21.4,22.4,,58.6,622,682,19,1022.17,62.1,0
"2020-05-25 19:48:21+00",19.4,23.4,,59.2,720,495,67,1022.22,62.5,0
"2020-05-25 19:53:21+00",22.0,24.0,,58.7,801,599,25,1022.01,62.3,0
"2020-05-25 19:58:21+00",21.5,23.5,,58.8,785,576,52,1022,62.2,0
"2020-05-25 20:03:21+00",21.4,23.4,,58.7,740,623,23,1021.87,61.9,0
"2020-05-25 20:08:21+00",19.7,21.7,,58.4,671,582,21,1021.83,61.9,0
"2020-05-25 20:13:21+00",18.2,20.2,,58.7,589,558,19,1021.76,62.1,0
"2020-05-25 20:18:21+00",16.7,17.7,,58.6,576,470,15,1021.67,62.3,0
"2020-05-25 20:23:21+00",16.3,18.3,,58.6,654,352,15,1021.49,62.4,0
"2020-05-25 20:28:21+00",16.9,19.9,,58.6,639,413,64,1021.38,62.7,0
"2020-05-25 20:33:21+00",17.3,19.3,,58.8,646,429,29,1021.29,62.6,0
"2020-05-25 20:38:21+00",15.6,18.6,,58.9,573,393,22,1021.31,62.7,0
"2020-05-25 20:43:21+00",15.5,18.5,,58.5,612,337,30,1021.28,62.5,0
"2020-05-25 20:48:21+00",15.7,16.7,,58.6,642,325,29,1021.16,62.5,0
"2020-05-25 20:53:21+00",17.6,20.6,,58.5,624,488,35,1021.3,62.5,0
"2020-05-25 20:58:21+00",15.1,18.1,,58.5,577,363,41,1021.32,62.1,0
"2020-05-25 21:03:21+00",15.9,17.9,,58.2,619,366,11,1021.21,62.2,0
"2020-05-25 21:08:21+00",16.1,18.1,,58.3,620,371,33,1021.1,62.3,0
"2020-05-25 21:13:21+00",14.2,17.2,,57.9,525,353,26,1021.2,61.9,0
"2020-05-25 21:18:21+00",15.3,17.3,,58.3,542,450,26,1021.31,62,0
"2020-05-25 21:23:21+00",13.9,16.9,,57.8,508,345,22,1021.37,61.8,0
"2020-05-25 21:28:21+00",13.3,15.3,,57.9,477,347,28,1021.31,61.5,0
"2020-05-25 21:33:21+00",14.8,17.8,,57.8,534,407,27,1021.27,61,0
"2020-05-25 21:38:21+00",13.8,15.8,,58.1,525,343,26,1021.25,61.2,0
"2020-05-25 21:43:21+00",15.5,17.5,,58.5,496,454,38,1021.08,61.6,0
"2020-05-25 21:48:21+00",15.7,16.7,,58.7,545,450,58,1021.18,61.8,0
"2020-05-25 21:53:21+00",13.5,16.5,,58.9,508,347,28,1021.06,61.9,0
"2020-05-25 21:58:21+00",12.4,15.4,,59,508,229,52,1021.06,62.1,0
"2020-05-25 22:03:21+00",14.6,16.6,,58.7,592,301,-2,1020.86,62.2,0
"2020-05-25 22:08:21+00",14.4,15.4,,58.6,616,275,30,1020.88,62.2,0
"2020-05-25 22:13:21+00",14.7,16.7,,58.5,633,257,13,1020.8,61.9,0
"2020-05-25 22:18:21+00",15.1,17.1,,58.7,651,248,36,1020.85,61.9,0
"2020-05-25 22:23:21+00",14.6,15.6,,58.6,633,213,43,1020.88,61.7,0
"2020-05-25 22:28:21+00",15.8,16.8,,57.9,672,254,30,1020.93,61,0
"2020-05-25 22:33:21+00",13.4,15.4,,57.8,534,291,40,1021,60.5,0
"2020-05-25 22:38:21+00",12.7,14.7,,57.7,496,276,20,1021.03,59.9,0
"2020-05-25 22:43:21+00",14.0,16.0,,57.5,566,297,18,1021.06,59.7,0
"2020-05-25 22:48:21+00",14.9,16.9,,57.4,625,296,23,1020.97,59.4,0
"2020-05-25 22:53:21+00",13.6,15.6,,57.4,577,268,39,1021.05,59.2,0
"2020-05-25 22:58:21+00",10.6,11.6,,57.4,434,208,52,1021,59,0
"2020-05-25 23:03:21+00",11.4,13.4,,57.2,449,255,24,1021.05,58.9,0
"2020-05-25 23:08:21+00",11.1,13.1,,57.1,470,197,59,1021.06,58.6,0
"2020-05-25 23:13:21+00",11.9,13.9,,56.8,462,267,39,1021,58.3,0
"2020-05-25 23:18:21+00",14.4,15.4,,56.8,551,340,9,1020.96,58.2,0
"2020-05-25 23:23:21+00",11.2,13.2,,56.8,415,272,37,1020.96,58.1,0
"2020-05-25 23:28:21+00",11.0,13.0,,56.8,426,255,-1,1021,58,0
"2020-05-25 23:33:21+00",11.0,13.0,,56.8,452,235,15,1021.03,57.9,0
"2020-05-25 23:38:21+00",11.3,13.3,,56.9,446,250,12,1021.1,57.9,0
"2020-05-25 23:43:21+00",12.5,13.5,,57,465,304,15,1021.04,57.9,0
"2020-05-25 23:48:21+00",10.3,12.3,,57,418,228,10,1021.08,57.9,0
"2020-05-25 23:53:21+00",9.7,11.7,,57.1,363,216,22,1021.1,57.8,0
"2020-05-25 23:58:21+00",11.3,12.3,,57,435,274,14,1021.02,57.8,0
